Location: Cedar Brake
(32.2526°N, 97.8459°W)
Time: 16:42:57
(UTC+00:00)

BREEZE-M DEB (TANK) - Pass Details

Date: 22 April 2026
Orbit: 326 x 14622 km, 49.5° (Epoch: 8 May)

Event Time Altitude Azimuth Distance (km) Brightness Sun altitude
Rises 02:43:25 0° 311° (NW) 5,129 9.7 -20.0°
Reaches altitude 10° 02:48:28 10° 320° (NW) 2,804 7.9 -20.9°
Maximum altitude 02:53:10 29° 22° (NNE) 973 4.6 -21.8°
Enters shadow 02:53:27 28° 32° (NNE) 947 4.5 -21.8°
